CW9928 Weather Reports


time (UTC)temp
C
wind
direction
speed
KPH
gust
KPH
rain 1hr
cm
rain 24hr
cm
rain mn
cm
humidity
%
barometer
mb
20260505153104 18 226 14.5 35.4 0.00 0.00 0.00 64 1004.3
20260505152545 18 278 12.9 38.6 0.00 0.00 0.00 64 1004.3
20260505152024 18 222 9.7 32.2 0.00 0.00 0.00 64 1004.4
20260505151503 18 275 14.5 38.6 0.00 0.00 0.00 65 1004.0
20260505151047 18 208 17.7 45.1 0.00 0.00 0.00 64 1003.8
20260505150527 18 264 12.9 45.1 0.00 0.00 0.00 65 1003.4
20260505150112 18 241 14.5 30.6 0.00 0.00 0.00 65 1003.4
20260505140526 17 212 17.7 37.0 0.00 0.00 0.00 67 1003.1
20260505140109 17 257 14.5 29.0 0.00 0.00 0.00 68 1002.9
20260505125004 17 243 9.7 24.1 0.00 0.00 0.00 71 1002.1
20260505124549 17 187 6.4 24.1 0.00 0.00 0.00 71 1002.1
20260505124027 16 256 8.0 19.3 0.00 0.00 0.00 71 1002.2
20260505123506 16 225 8.0 19.3 0.00 0.00 0.00 71 1002.5
20260505123051 17 225 6.4 19.3 0.00 0.00 0.00 71 1002.1
20260505122530 17 241 6.4 22.5 0.00 0.00 0.00 70 1002.2
20260505122010 16 232 9.7 22.5 0.00 0.00 0.00 70 1002.0
20260505121554 16 229 6.4 20.9 0.00 0.00 0.00 70 1001.8
20260505121034 16 243 9.7 20.9 0.00 0.00 0.00 70 1002.0
20260505120514 16 216 8.0 25.7 0.00 0.00 0.00 70 1002.0
20260505120114 16 242 8.0 25.7 0.00 0.00 0.00 70 1002.1
20260505115523 16 229 11.3 22.5 0.00 0.00 0.00 70 1002.2
20260505115104 16 231 6.4 20.9 0.00 0.00 0.00 70 1002.0
20260505114544 16 235 8.0 17.7 0.00 0.00 0.00 70 1002.0
20260505114024 16 244 4.8 20.9 0.00 0.00 0.00 70 1001.9
20260505113505 16 246 4.8 22.5 0.00 0.00 0.00 70 1001.9
20260505113048 16 208 4.8 22.5 0.00 0.00 0.00 70 1001.8
20260505112528 16 252 8.0 22.5 0.00 0.00 0.00 70 1001.6
20260505112008 16 239 6.4 24.1 0.00 0.00 0.00 70 1001.7
20260505111552 16 250 8.0 24.1 0.00 0.00 0.00 70 1001.7
20260505111033 16 243 6.4 20.9 0.00 0.00 0.00 70 1001.6
20260505110512 16 233 8.0 17.7 0.00 0.00 0.00 69 1001.6
20260505102010 16 245 9.7 32.2 0.00 0.00 0.00 69 1000.5
20260505101552 16 258 9.7 32.2 0.00 0.00 0.00 70 1000.6
20260505101030 16 250 6.4 22.5 0.00 0.00 0.00 70 1000.4
20260505100510 16 263 11.3 24.1 0.00 0.00 0.00 70 1000.5
20260505100055 16 238 8.0 24.1 0.00 0.00 0.00 70 1000.4
20260505095511 16 194 4.8 22.5 0.00 0.00 0.00 71 1000.3
20260505095055 16 248 8.0 22.5 0.00 0.00 0.00 71 1000.4
20260505094536 16 227 4.8 20.9 0.00 0.00 0.00 71 1000.3
20260505094016 16 233 6.4 20.9 0.00 0.00 0.00 72 1000.2
20260505093600 16 257 6.4 17.7 0.00 0.00 0.00 72 999.9
20260505093042 16 225 4.8 20.9 0.00 0.00 0.00 73 1000.2
20260505092520 16 274 4.8 14.5 0.00 0.00 0.00 74 1000.1
20260505092104 16 234 4.8 16.1 0.00 0.00 0.00 74 999.8
20260505091545 15 217 3.2 20.9 0.00 0.00 0.00 75 999.8
20260505091023 15 228 8.0 20.9 0.00 0.00 0.00 75 999.9
20260505090503 15 254 4.8 12.9 0.00 0.00 0.00 76 999.9
20260505090050 15 217 1.6 12.9 0.00 0.00 0.00 76 999.8
20260505085514 15 212 1.6 11.3 0.00 0.00 0.00 76 999.8
20260505085053 15 208 0.0 24.1 0.00 0.00 0.00 76 999.9
20260505084533 15 239 6.4 24.1 0.00 0.00 0.00 77 999.9
20260505084015 15 196 1.6 16.1 0.00 0.00 0.00 78 1000.0
20260505083554 15 224 3.2 16.1 0.00 0.00 0.00 79 1000.1
20260505083035 15 244 0.0 8.0 0.00 0.00 0.00 79 1000.1
20260505082515 15 223 0.0 3.2 0.00 0.00 0.00 79 1000.3
20260505082059 15 223 0.0 4.8 0.00 0.00 0.00 79 1000.4
20260505081541 15 223 0.0 8.0 0.00 0.00 0.00 80 1000.5
20260505081019 15 223 1.6 8.0 0.00 0.00 0.00 80 1000.4
20260505080602 15 202 0.0 12.9 0.00 0.00 0.00 80 1000.4
20260505080020 15 301 1.6 12.9 0.00 0.00 0.00 80 1000.4
20260505075601 15 260 3.2 9.7 0.00 0.00 0.00 80 1000.4
20260505075041 15 189 3.2 9.7 0.00 0.00 0.00 81 1000.4
20260505074521 15 195 3.2 12.9 0.00 0.00 0.00 80 1000.4
20260505074001 15 258 3.2 12.9 0.00 0.00 0.00 80 1000.4
20260505073546 15 233 1.6 11.3 0.00 0.00 0.00 80 1000.4
20260505073042 15 228 1.6 11.3 0.00 0.00 0.00 80 1000.4
20260505072506 15 232 3.2 11.3 0.00 0.00 0.00 79 1000.3
20260505072045 15 216 3.2 8.0 0.00 0.00 0.00 79 1000.4
20260505071526 16 204 1.6 8.0 0.00 0.00 0.00 77 1000.4
20260505071006 16 162 0.0 14.5 0.00 0.00 0.00 76 1000.4
20260505070550 16 246 1.6 14.5 0.00 0.00 0.00 76 1000.4
20260505070012 16 205 1.6 14.5 0.00 0.00 0.00 75 1000.5
20260505065556 16 221 1.6 14.5 0.00 0.00 0.00 74 1000.5
20260505065035 17 234 4.8 14.5 0.00 0.00 0.00 75 1000.7
20260505064532 17 237 3.2 14.5 0.00 0.00 0.00 75 1000.6
20260505064100 17 230 3.2 12.9 0.00 0.00 0.00 74 1000.6
20260505063541 17 225 3.2 12.9 0.00 0.00 0.00 74 1000.6
20260505063020 17 218 3.2 25.7 0.00 0.00 0.00 73 1000.8
20260505062604 17 281 8.0 25.7 0.00 0.00 0.00 74 1000.9
20260505062043 16 241 3.2 24.1 0.00 0.00 0.00 77 1000.7
20260505061535 16 274 8.0 24.1 0.00 0.00 0.00 77 1000.8
20260505061001 16 235 6.4 30.6 0.00 0.00 0.00 76 1001.2
20260505060542 16 206 6.4 30.6 0.00 0.00 0.00 75 1001.4
20260505060003 16 284 8.0 33.8 0.00 0.00 0.00 75 1001.7
20260505055547 16 218 11.3 22.5 0.00 0.00 0.00 75 1001.6
20260505055027 16 231 8.0 32.2 0.00 0.00 0.00 75 1001.4
20260505054507 16 262 9.7 32.2 0.00 0.00 0.00 75 1001.1
20260505054052 16 279 8.0 25.7 0.00 0.00 0.00 75 1001.1
20260505053531 17 259 8.0 25.7 0.00 0.00 0.00 71 1001.4
20260505053010 17 225 14.5 25.7 0.00 0.00 0.00 70 1001.4
20260505052556 17 259 4.8 20.9 0.00 0.00 0.00 69 1001.6
20260505052035 17 223 8.0 19.3 0.00 0.00 0.00 68 1001.8
20260505051517 17 246 6.4 19.3 0.00 0.00 0.00 67 1001.9
20260505051059 17 246 4.8 19.3 0.00 0.00 0.00 66 1002.0
20260505050538 17 231 3.2 20.9 0.00 0.00 0.00 65 1002.0
20260505041514 17 240 8.0 29.0 0.00 0.00 0.00 66 1001.9
20260505041056 17 253 8.0 29.0 0.00 0.00 0.00 67 1002.0
20260505040536 17 206 4.8 14.5 0.00 0.00 0.00 67 1001.8
20260505040120 17 225 3.2 14.5 0.00 0.00 0.00 67 1001.8
20260505035541 17 224 4.8 12.9 0.00 0.00 0.00 67 1001.7
20260505035021 17 270 1.6 12.9 0.00 0.00 0.00 67 1001.7
20260505034505 17 210 1.6 8.0 0.00 0.00 0.00 67 1001.8
20260505034046 17 224 0.0 8.0 0.00 0.00 0.00 67 1001.7
20260505033526 17 224 1.6 9.7 0.00 0.00 0.00 67 1001.5
20260505033006 16 223 1.6 9.7 0.00 0.00 0.00 67 1001.5
20260505032550 16 260 0.0 8.0 0.00 0.00 0.00 67 1001.6
20260505032029 16 237 1.6 9.7 0.00 0.00 0.00 67 1001.5
20260505031529 16 200 0.0 9.7 0.00 0.00 0.00 67 1001.6
20260505031053 16 201 1.6 9.7 0.00 0.00 0.00 67 1001.7
20260505030536 17 213 0.0 9.7 0.00 0.00 0.00 66 1001.7
20260505030118 17 220 0.0 9.7 0.00 0.00 0.00 66 1001.7
20260505025541 17 225 0.0 12.9 0.00 0.00 0.00 65 1002.0
20260505025019 17 222 3.2 12.9 0.00 0.00 0.00 64 1002.2
20260505024603 17 229 0.0 14.5 0.00 0.00 0.00 64 1002.2
20260505024043 17 215 1.6 14.5 0.00 0.00 0.00 63 1002.2
20260505023523 17 221 1.6 14.5 0.00 0.00 0.00 61 1002.2
20260505023006 17 237 4.8 14.5 0.00 0.00 0.00 60 1002.3
20260505022548 17 210 4.8 17.7 0.00 0.00 0.00 59 1002.3
20260505022028 18 214 3.2 17.7 0.00 0.00 0.00 57 1002.3
20260505021511 18 232 3.2 17.7 0.00 0.00 0.00 55 1002.2
20260505021052 18 236 1.6 22.5 0.00 0.00 0.00 55 1002.3
20260505020531 18 227 11.3 25.7 0.00 0.00 0.00 53 1002.5
20260505020116 18 187 8.0 32.2 0.00 0.00 0.00 51 1002.5
20260505015538 18 243 4.8 32.2 0.00 0.00 0.00 50 1002.4
20260505015018 18 221 1.6 9.7 0.00 0.00 0.00 49 1002.3
20260505014610 18 219 0.0 8.0 0.00 0.00 0.00 49 1002.2
20260505014041 18 219 0.0 8.0 0.00 0.00 0.00 48 1002.1
20260505013521 18 216 0.0 6.4 0.00 0.00 0.00 48 1002.0
20260505013001 18 202 0.0 9.7 0.00 0.00 0.00 47 1002.1
20260505012546 18 200 1.6 9.7 0.00 0.00 0.00 47 1002.1
20260505012026 18 262 0.0 6.4 0.00 0.00 0.00 47 1002.1
20260505011505 18 262 0.0 6.4 0.00 0.00 0.00 46 1002.0
20260505011048 19 264 0.0 6.4 0.00 0.00 0.00 46 1002.0
20260505010528 19 264 0.0 6.4 0.00 0.00 0.00 45 1001.9
20260505010112 19 265 0.0 6.4 0.00 0.00 0.00 45 1002.0
20260505005534 19 265 0.0 8.0 0.00 0.00 0.00 44 1002.0
20260505005015 19 265 0.0 12.9 0.00 0.00 0.00 43 1002.0
20260505004600 19 249 1.6 12.9 0.00 0.00 0.00 43 1002.0
20260505004042 20 246 0.0 11.3 0.00 0.00 0.00 43 1002.0
20260505003518 20 246 3.2 12.9 0.00 0.00 0.00 42 1002.0
20260505003103 20 262 0.0 17.7 0.00 0.00 0.00 41 1002.0
20260505002543 20 246 3.2 17.7 0.00 0.00 0.00 41 1002.2
20260505002023 20 248 4.8 14.5 0.00 0.00 0.00 40 1002.3
20260505001503 20 225 6.4 14.5 0.00 0.00 0.00 39 1002.2
20260505001050 20 204 1.6 14.5 0.00 0.00 0.00 39 1002.3
20260505000526 20 253 6.4 14.5 0.00 0.00 0.00 38 1002.4
20260505000118 21 250 4.8 19.3 0.00 0.00 0.00 37 1002.3
20260504235534 21 230 8.0 19.3 0.00 0.00 0.00 37 1002.3
20260504235013 21 263 8.0 22.5 0.00 0.00 0.00 37 1002.3
20260504234556 21 258 6.4 22.5 0.00 0.00 0.00 37 1002.3
20260504234036 21 281 9.7 19.3 0.00 0.00 0.00 36 1002.4
20260504233517 21 251 8.0 22.5 0.00 0.00 0.00 37 1002.4
20260504233102 21 247 6.4 22.5 0.00 0.00 0.00 37 1002.4
20260504232539 21 243 8.0 17.7 0.00 0.00 0.00 37 1002.5
20260504232019 21 262 4.8 16.1 0.00 0.00 0.00 38 1002.4
20260504231602 21 241 4.8 16.1 0.00 0.00 0.00 37 1002.4
20260504231041 22 224 8.0 22.5 0.00 0.03 0.00 36 1002.4
20260504230520 22 250 11.3 22.5 0.00 0.03 0.00 36 1002.4
20260504230109 22 260 6.4 17.7 0.00 0.03 0.00 38 1002.4
20260504225526 22 246 8.0 24.1 0.00 0.03 0.00 38 1002.4
20260504225010 22 233 8.0 24.1 0.00 0.03 0.00 40 1002.5
20260504224550 22 232 4.8 20.9 0.00 0.03 0.00 41 1002.4
20260504224030 22 256 6.4 22.5 0.00 0.03 0.00 41 1002.4
20260504223510 22 266 6.4 22.5 0.00 0.03 0.00 41 1002.5
20260504223101 22 229 8.0 22.5 0.00 0.03 0.00 42 1002.6
20260504222535 22 245 12.9 22.5 0.00 0.03 0.00 42 1002.7
20260504222014 22 274 9.7 22.5 0.00 0.03 0.00 43 1002.6
20260504221605 21 214 9.7 22.5 0.00 0.03 0.00 43 1002.6
20260504221039 21 245 8.0 24.1 0.00 0.03 0.00 43 1002.6
20260504220520 21 247 3.2 24.1 0.00 0.03 0.00 42 1002.5
20260504220104 21 202 8.0 24.1 0.00 0.03 0.00 43 1002.7
20260504215524 22 214 11.3 24.1 0.00 0.03 0.00 42 1002.8
20260504215004 22 250 8.0 25.7 0.00 0.03 0.00 42 1002.7
20260504214547 22 250 11.3 25.7 0.00 0.03 0.00 42 1002.7
20260504214028 22 244 8.0 22.5 0.00 0.03 0.00 42 1002.7
20260504213508 22 219 6.4 35.4 0.00 0.03 0.00 42 1002.7
20260504213051 22 275 11.3 35.4 0.00 0.03 0.00 41 1002.7
20260504212534 22 240 11.3 24.1 0.00 0.03 0.00 40 1002.6
20260504212011 22 234 8.0 19.3 0.00 0.03 0.00 41 1002.6
20260504211603 22 216 8.0 32.2 0.00 0.03 0.00 41 1002.6
20260504211035 22 260 6.4 29.0 0.00 0.03 0.00 42 1002.5
20260504210515 22 258 9.7 29.0 0.00 0.03 0.00 41 1002.6
20260504210059 22 246 9.7 25.7 0.00 0.03 0.00 40 1002.5
20260504205523 22 248 9.7 25.7 0.00 0.03 0.00 41 1002.5
20260504205106 22 254 6.4 19.3 0.00 0.03 0.00 41 1002.5
20260504204544 22 262 6.4 25.7 0.00 0.03 0.00 41 1002.5
20260504204024 22 216 9.7 22.5 0.00 0.03 0.00 41 1002.6
20260504203504 22 238 6.4 32.2 0.00 0.03 0.00 41 1002.6
20260504203059 21 223 9.7 38.6 0.00 0.03 0.00 40 1002.8
20260504202527 21 249 8.0 38.6 0.00 0.03 0.00 41 1002.8
20260504202012 22 229 9.7 30.6 0.00 0.03 0.00 41 1002.7
20260504201552 22 269 6.4 30.6 0.00 0.03 0.00 41 1002.9
20260504201031 21 273 6.4 25.7 0.00 0.03 0.00 41 1002.9
20260504200511 21 204 9.7 37.0 0.00 0.03 0.00 41 1003.0
20260504200056 21 252 14.5 37.0 0.00 0.03 0.00 41 1002.9
20260504195517 21 250 11.3 32.2 0.00 0.03 0.00 41 1003.0
20260504195103 21 219 9.7 35.4 0.00 0.03 0.00 42 1003.0
20260504194542 21 249 14.5 35.4 0.00 0.03 0.00 41 1003.2
20260504194022 21 275 12.9 25.7 0.00 0.03 0.00 42 1003.1
20260504193606 21 258 8.0 24.1 0.00 0.03 0.00 44 1003.4
20260504193044 21 204 9.7 25.7 0.00 0.03 0.00 44 1003.5
20260504192524 21 256 11.3 25.7 0.00 0.03 0.00 44 1003.6
20260504192004 21 217 8.0 17.7 0.00 0.03 0.00 46 1003.7
20260504191550 21 230 6.4 29.0 0.00 0.03 0.00 47 1003.7
20260504191028 21 196 6.4 29.0 0.00 0.03 0.00 48 1003.8
20260504190515 20 263 9.7 38.6 0.00 0.03 0.00 48 1003.9
20260504185514 20 169 12.9 24.1 0.00 0.03 0.00 48 1004.1
20260504185058 20 241 8.0 24.1 0.00 0.03 0.00 48 1004.2
20260504184538 20 228 6.4 25.7 0.00 0.03 0.00 50 1004.2
20260504184020 20 270 9.7 30.6 0.00 0.03 0.00 50 1004.3
20260504183604 20 216 8.0 17.7 0.00 0.03 0.00 50 1004.3
20260504183042 20 227 6.4 20.9 0.00 0.03 0.00 52 1004.4
20260504182522 20 182 9.7 25.7 0.00 0.03 0.00 51 1004.4
20260504182002 19 201 9.7 25.7 0.00 0.03 0.00 51 1004.6
20260504181552 19 205 6.4 20.9 0.00 0.03 0.00 53 1004.7
20260504181025 19 235 6.4 29.0 0.00 0.03 0.00 53 1004.8
20260504180504 19 272 14.5 29.0 0.00 0.03 0.00 51 1004.9
20260504180048 19 231 6.4 22.5 0.00 0.03 0.00 53 1004.9
20260504175516 18 211 11.3 22.5 0.00 0.03 0.00 52 1004.9
20260504175055 18 212 6.4 22.5 0.00 0.03 0.00 53 1004.9
20260504174535 18 177 9.7 22.5 0.00 0.03 0.00 53 1004.9
20260504174015 18 217 4.8 20.9 0.00 0.03 0.00 55 1004.9
20260504173559 18 217 9.7 29.0 0.00 0.03 0.00 54 1005.2
20260504173038 18 266 6.4 29.0 0.00 0.03 0.00 54 1005.2
20260504172518 18 258 8.0 22.5 0.00 0.03 0.00 54 1005.2
20260504172102 18 206 11.3 22.5 0.00 0.03 0.00 54 1005.3
20260504171542 17 266 6.4 22.5 0.00 0.03 0.00 55 1005.3
20260504171023 17 255 6.4 22.5 0.00 0.03 0.00 55 1005.2
20260504170503 17 233 6.4 22.5 0.00 0.03 0.00 54 1005.4